THY7NW LTBA-LROP

Flight info

Callsign THY7NW
Flight time N/A
Altitude 36000
Route IBLAX P727 BGS L622 KOMAN/N0329F100 L622 OBUGA
Aircraft B738/M-SDE2E3FGHIRWXY/LB1

Departure

Time 2026-04-22 10:34
Airport İstanbul Atatürk Airport (LTBA)

Arrival

Time N/A
Airport Bucharest Henri Coandă International Airport (LROP)
Time Latitude Longitude Altitude Speed Heading
2026-04-22 10:14 0.00000 0.00000 0 ft 0 kts
2026-04-22 10:15 40.97962 28.81527 173 ft 0 kts 98°
2026-04-22 10:25 40.97962 28.81526 173 ft 1 kts 99°
2026-04-22 10:25 40.97964 28.81507 173 ft 2 kts 99°
2026-04-22 10:25 40.97967 28.81487 173 ft 2 kts 99°
2026-04-22 10:26 40.97969 28.81468 173 ft 2 kts 99°
2026-04-22 10:26 40.97973 28.81448 173 ft 2 kts 117°
2026-04-22 10:26 40.97980 28.81432 173 ft 2 kts 133°
2026-04-22 10:26 40.97992 28.81419 173 ft 2 kts 151°
2026-04-22 10:27 40.98006 28.81411 173 ft 2 kts 168°
2026-04-22 10:27 40.98015 28.81409 173 ft 1 kts 179°
2026-04-22 10:27 40.98021 28.81410 173 ft 0 kts 180°
2026-04-22 10:28 40.98020 28.81410 173 ft 0 kts 180°
2026-04-22 10:29 40.98003 28.81410 173 ft 4 kts 180°
2026-04-22 10:29 40.97953 28.81409 173 ft 9 kts 181°
2026-04-22 10:29 40.97871 28.81408 173 ft 13 kts 181°
2026-04-22 10:29 40.97762 28.81399 173 ft 16 kts 187°
2026-04-22 10:30 40.97651 28.81393 173 ft 15 kts 181°
2026-04-22 10:30 40.97546 28.81393 173 ft 14 kts 180°
2026-04-22 10:30 40.97459 28.81426 173 ft 13 kts 172°
2026-04-22 10:30 40.97347 28.81432 173 ft 18 kts 178°
2026-04-22 10:31 40.97196 28.81439 173 ft 24 kts 178°
2026-04-22 10:31 40.97030 28.81437 173 ft 23 kts 181°
2026-04-22 10:31 40.96915 28.81334 173 ft 19 kts 239°
2026-04-22 10:31 40.96845 28.81184 173 ft 18 kts 239°
2026-04-22 10:32 40.96781 28.81044 173 ft 17 kts 239°
2026-04-22 10:32 40.96697 28.80917 173 ft 18 kts 193°
2026-04-22 10:32 40.96597 28.80973 173 ft 14 kts 131°
2026-04-22 10:32 40.96591 28.81057 173 ft 2 kts 60°
2026-04-22 10:33 40.96601 28.81080 173 ft 5 kts 60°
2026-04-22 10:33 40.96753 28.81395 173 ft 76 kts 60°
2026-04-22 10:33 40.97143 28.82254 173 ft 138 kts 58°
2026-04-22 10:33 40.97707 28.83504 402 ft 165 kts 56°
2026-04-22 10:34 40.98246 28.84717 1391 ft 148 kts 56°
2026-04-22 10:34 40.98789 28.85818 1956 ft 151 kts 53°
2026-04-22 10:34 40.99382 28.86967 2287 ft 164 kts 55°
2026-04-22 10:34 41.00029 28.88325 2661 ft 180 kts 56°
2026-04-22 10:35 41.00712 28.89784 3004 ft 198 kts 56°
2026-04-22 10:35 41.01468 28.91401 3375 ft 217 kts 57°
2026-04-22 10:35 41.02286 28.93140 3847 ft 232 kts 56°
2026-04-22 10:35 41.03377 28.94779 4294 ft 246 kts 32°
2026-04-22 10:36 41.04993 28.95603 4876 ft 255 kts 10°
2026-04-22 10:36 41.06759 28.95481 5561 ft 262 kts 344°
2026-04-22 10:36 41.08439 28.94519 6275 ft 266 kts 333°
2026-04-22 10:36 41.10070 28.93348 7019 ft 268 kts 331°
2026-04-22 10:37 41.11740 28.92171 7728 ft 272 kts 332°
2026-04-22 10:37 41.15211 28.89857 9106 ft 279 kts 330°
2026-04-22 10:37 41.16974 28.88704 9782 ft 283 kts 329°
2026-04-22 10:38 41.18745 28.87546 10468 ft 285 kts 329°
2026-04-22 10:38 41.20593 28.86327 10932 ft 296 kts 329°
2026-04-22 10:38 41.22522 28.85133 11256 ft 312 kts 332°
2026-04-22 10:38 41.24553 28.83895 11556 ft 327 kts 331°
2026-04-22 10:39 41.26667 28.82540 11883 ft 341 kts 329°
2026-04-22 10:39 41.28847 28.81121 12243 ft 354 kts 328°
2026-04-22 10:39 41.31123 28.79588 12867 ft 360 kts 329°
2026-04-22 10:39 41.33403 28.78083 13528 ft 364 kts 329°
2026-04-22 10:40 41.35715 28.76563 14150 ft 370 kts 328°
2026-04-22 10:40 41.38056 28.75013 14814 ft 374 kts 328°
2026-04-22 10:40 41.40337 28.73355 15475 ft 374 kts 322°
2026-04-22 10:40 41.42417 28.71273 16162 ft 371 kts 314°
2026-04-22 10:41 41.44297 28.68883 16857 ft 370 kts 308°
2026-04-22 10:41 41.46119 28.66352 17565 ft 373 kts 310°
2026-04-22 10:41 41.48086 28.63948 18231 ft 377 kts 313°
2026-04-22 10:41 41.50084 28.61677 18882 ft 381 kts 314°
2026-04-22 10:42 41.52132 28.59463 19601 ft 381 kts 314°
2026-04-22 10:42 41.54185 28.57266 20283 ft 382 kts 315°
2026-04-22 10:42 41.56241 28.55034 20979 ft 381 kts 314°
2026-04-22 10:42 41.58289 28.52773 21655 ft 381 kts 313°
2026-04-22 10:43 41.60326 28.50503 22308 ft 381 kts 313°
2026-04-22 10:43 41.62363 28.48231 22926 ft 381 kts 313°
2026-04-22 10:43 41.64369 28.46001 23709 ft 377 kts 313°
2026-04-22 10:43 41.66360 28.43789 24373 ft 375 kts 313°
2026-04-22 10:44 41.68379 28.41538 24920 ft 376 kts 313°
2026-04-22 10:44 41.70388 28.39294 25589 ft 374 kts 313°
2026-04-22 10:44 41.72370 28.37073 26188 ft 372 kts 313°
2026-04-22 10:44 41.74319 28.34864 26804 ft 368 kts 310°
2026-04-22 10:45 41.76231 28.32573 27423 ft 366 kts 310°
2026-04-22 10:45 41.78142 28.30383 28019 ft 365 kts 311°
2026-04-22 10:45 41.80105 28.28221 28578 ft 364 kts 312°
2026-04-22 10:45 41.82071 28.26090 29119 ft 362 kts 311°
2026-04-22 10:46 41.83019 28.25057 29371 ft 361 kts 311°